Home   Weather   Sendai   Past weeks

Flag for Japan Past Weather in Sendai, Japan — Yesterday and Last 2 Weeks

Now
72 °F

Broken clouds.


Feels Like: 67 °F
Forecast: 69 / 76 °F
Wind: 14 mph from East

Location: Sendai Airport

Current Time: Aug 20, 2017 at 3:06:10 pm

Latest Report: Aug 20, 2017 at 2:00 pm


Visibility: N/A

Pressure: 29.92 "Hg

Humidity: 94%

Dew Point: 70 °F

Location of SendaiLocation

Past Weather in Sendai — Graph

°F

Sendai Temperature Yesterday

Maximum temperature yesterday: 72 °F (at 12:00 pm)
Minimum temperature yesterday: 68 °F (at 5:30 am)
Average temperature yesterday: 70 °F

High & Low Weather Summary for the Past Weeks

 TemperatureHumidityPressure
High81 °F (Aug 6, 12:00 pm)100% (Aug 6, 8:00 am)29.95 "Hg (Aug 6, 8:00 am)
Low66 °F (Aug 11, 9:00 pm)78% (Aug 10, 8:00 am)29.30 "Hg (Aug 8, 2:00 pm)
Average72 °F95%29.71 "Hg
* Reported Aug 5 2:00 pm — Aug 20 2:00 pm, Sendai. Weather by CustomWeather, © 2017

Note: Actual official high and low records may vary slightly from our data, if they occured in-between our weather recording intervals... More about our weather records

Advertising

Sendai Weather History for the Previous 24 Hours

Scroll right to see more
 ConditionsComfort  
Time TempWeatherWind HumidityBarometerVisibility
2:00 pm
Sun, Aug 20
72 °FBroken clouds.14 mph94%29.92 "HgN/A
1:00 pm72 °FDrizzle. Fog.10 mph94%29.95 "Hg3 mi
12:37 pm72 °FDrizzle. Fog.9 mph94%29.95 "Hg3 mi
12:00 pm72 °FDrizzle. Fog.9 mph94%29.95 "Hg3 mi
11:36 am72 °FDrizzle. Fog.9 mph94%29.95 "Hg2 mi
11:19 am72 °FDrizzle. Broken clouds.9 mph94%29.95 "Hg4 mi
10:28 am72 °FDrizzle. Broken clouds.7 mph94%29.95 "HgN/A
10:00 am72 °FDrizzle. Broken clouds.6 mph100%29.95 "Hg5 mi
9:00 am70 °FDrizzle. Fog.5 mph100%29.95 "Hg1 mi
8:27 am70 °FDrizzle. Fog.3 mph100%29.95 "Hg3 mi
8:20 am70 °FDrizzle. Fog.5 mph100%29.95 "Hg2 mi
8:00 am70 °FDrizzle. Fog.3 mph100%29.95 "Hg1 mi
7:37 am70 °FDrizzle. Fog.3 mph100%29.95 "Hg1 mi
7:00 am70 °FDrizzle. Fog.3 mph100%29.95 "Hg1 mi
6:28 am70 °FDrizzle. Fog.3 mph100%29.95 "Hg1 mi
6:09 am68 °FDrizzle. Fog.3 mph100%29.95 "Hg1 mi
5:30 am68 °FDrizzle. Fog.3 mph100%29.92 "Hg1 mi
9:00 pm
Sat, Aug 19
70 °FSprinkles. Partly cloudy.2 mph100%29.92 "HgN/A
8:00 pm70 °FPartly cloudy.7 mph94%29.92 "HgN/A
7:00 pm70 °FPartly cloudy.7 mph100%29.92 "HgN/A
6:45 pm70 °FSprinkles. Fog.7 mph100%29.92 "Hg3 mi
6:27 pm70 °FSprinkles. Fog.9 mph100%29.89 "Hg2 mi
6:00 pm72 °FBroken clouds.8 mph94%29.89 "HgN/A
5:00 pm72 °FBroken clouds.7 mph94%29.89 "HgN/A
4:00 pm72 °FPartly sunny.5 mph94%29.89 "HgN/A
3:00 pm72 °FPartly sunny.6 mph94%29.89 "HgN/A
Weather by CustomWeather, © 2017

See weather overviewHow to use our weather pages